Location: ČR
(50.0000°N, 15.0000°E)
Time: 13:59:40
(UTC+00:00)

O/OREOS (USA 219) - Pass Details

Date: 10 December 2021
Orbit: 621 x 646 km, 72.0° (Epoch: 22 May)

Event Time Altitude Azimuth Distance (km) Brightness Sun altitude
Rises 16:00:45 0° 341° (NNW) 2,954 ? -9.5°
Reaches altitude 10° 16:05:25 10° 25° (NNE) 2,047 ? -10.2°
Maximum altitude 16:06:05 10° 33° (NNE) 2,030 ? -10.3°
Enters shadow 16:06:25 10° 37° (NE) 2,034 ? -10.3°
